sat.trackr.live / text

‹ back to catalog

ZHONGXING-2E

NORAD 49062 · 2021-071A

PAYLOAD ACTIVE UNKNOWN

§ Identity

Operator
Country
PRC
Launch date
2021-08-05
Launch site
XICLF
Launch vehicle
Mass (kg)
RCS (m²)

Purposes: comms

External: N2YO · Heavens-Above · Gunter

§ Orbital elements

Epoch: 2026-09-20T00:16:46.769952Z

Period
1,436.09 min
Inclination
0.0368°
Eccentricity
0.0000406
Mean motion
1.00272112 rev/d
Perigee alt
35,784.8 km
Apogee alt
35,788.2 km
Semi-major
42,164.6 km
B*
0.0000e+0
RAAN
78.2656°
Arg perigee
158.0070°
Mean anomaly
224.9213°
Rev number
1,899

§ Raw data

ZHONGXING-2E1 49062U 21071A   26263.01165243 -.00000296  00000+0  00000+0 0  99992 49062   0.0368  78.2656 0000406 158.0070 224.9213  1.00272112 18991

JSON: /api/v1/satellites/49062 · /tle

For live sub-satellite position, see the globe view (requires WebGL).

§ Visibility from observer

Set your observer location to see the next 7 days of passes ≥ 10°. The values pass through the URL so the page stays shareable.

No JS? Fill the form by hand. The geolocation button needs JavaScript.